Hourly Data Report for October 13, 2013

All times are specified in Local Standard Time (LST). Add 1 hour to adjust for Daylight Saving Time where and when it is observed.

PETAWAWA AWOS 2
ONTARIO

45°57'00.000" N
77°19'00.000" W
130.10 m
6106396
71625
YWA

Download Data

Hourly Data (October 2013)
Hourly Data Report for October 13, 2013
Temp Definition
°C
Dew Point Temp Definition
°C
Rel Hum Definition
%
Wind Dir Definition
10's deg

Wind Spd Definition
km/h
Visibility Definition
km
Stn Press Definition
kPa
Hmdx Definition


Wind Chill Definition


Weather Definition


TIME
00:00 7.3 7.1 99   0 15.0 100.75      
01:00 7.3 6.9 97 12 4 11.3 100.75      
02:00 12.4 9.9 85 12 7 15.0 100.74      
03:00 12.3 10.1 86 10 9 15.0 100.74      
04:00 12.4 10.3 87 10 9 15.0 100.74      
05:00 12.0 10.2 89 12 9 15.0 100.79      
06:00 11.9 10.6 92 11 13 15.0 100.82      
07:00 12.1 10.9 92 12 11 15.0 100.86      
08:00 12.5 11.1 91 9 7 15.0 100.94      
09:00 13.2 11.5 89 11 13 15.0 100.92      
10:00 13.5 12.3 92 12 9 11.3 100.92     Rain
11:00 14.2 12.7 91 12 7 15.0 100.90     Rain
12:00 15.1 13.5 90 11 6 15.0 100.87     Rain
13:00 15.7 13.7 88 13 6 15.0 100.83      
14:00 16.2 13.9 86   0 15.0 100.80     Drizzle
15:00 15.9 14.2 90 12 4 12.9 100.80     Rain
16:00 15.2 14.7 97 10 6 4.0 100.78     Rain
17:00 15.1 14.7 97   0 4.8 100.79     Rain
18:00 14.8 14.6 99   0 4.8 100.82     Rain
19:00 14.9 14.8 99 12 6 3.2 100.81     Rain
20:00 14.9 14.6 98 12 6 6.4 100.81      
21:00 14.9 14.8 99 14 6 3.4 100.81     Drizzle
22:00 14.9 14.7 99   0 5.6 100.81      
23:00 14.6 14.5 99   0 2.7 100.81      

Notes on Data Quality.

Legend

  • E = Estimated
  • M = Missing
  • NA = Not Available
  • ‡ = Partner data that is not subject to review by the National Climate Archives
Date modified: